Time,TemperatureF,DewpointF,PressureIn,WindDirection,WindDirectionDegrees,WindSpeedMPH,WindSpeedGustMPH,Humidity,HourlyPrecipIn,Conditions,Clouds,dailyrainin,SoftwareType,DateUTC
2013-01-20 00:05:00,36.0,35.5,30.12,WNW,292,0.0,-999.0,98,-99.99,,,0.00,Acu-Link.com,2013-01-20 08:05:00,
2013-01-20 00:20:00,35.6,35.1,30.12,WNW,292,0.0,-999.0,98,-99.99,,,0.00,Acu-Link.com,2013-01-20 08:20:00,
2013-01-20 00:35:00,35.6,35.1,30.12,WNW,292,0.0,-999.0,98,-99.99,,,0.00,Acu-Link.com,2013-01-20 08:35:00,
2013-01-20 00:50:00,35.2,34.7,30.13,WNW,292,0.0,-999.0,98,-99.99,,,0.00,Acu-Link.com,2013-01-20 08:50:00,
2013-01-20 01:15:00,34.9,34.4,30.12,WNW,292,0.0,-999.0,98,-99.99,,,0.00,Acu-Link.com,2013-01-20 09:15:00,
2013-01-20 01:30:00,34.5,34.0,30.12,WNW,292,0.0,-999.0,98,-99.99,,,0.00,Acu-Link.com,2013-01-20 09:30:00,
2013-01-20 01:45:00,34.0,33.5,30.12,WNW,292,0.0,-999.0,98,-99.99,,,0.00,Acu-Link.com,2013-01-20 09:45:00,
2013-01-20 02:00:00,33.4,32.9,30.13,WNW,292,0.0,-999.0,98,-99.99,,,0.00,Acu-Link.com,2013-01-20 10:00:00,
2013-01-20 02:15:00,33.4,32.9,30.13,WNW,292,0.0,-999.0,98,-99.99,,,0.00,Acu-Link.com,2013-01-20 10:15:00,
2013-01-20 02:30:00,33.1,32.6,30.13,WNW,292,0.0,-999.0,98,-99.99,,,0.00,Acu-Link.com,2013-01-20 10:30:00,
2013-01-20 02:45:00,32.9,32.4,30.15,WNW,292,0.0,-999.0,98,-99.99,,,0.00,Acu-Link.com,2013-01-20 10:45:00,
2013-01-20 03:00:00,32.7,32.2,30.13,WNW,292,0.0,-999.0,98,-99.99,,,0.00,Acu-Link.com,2013-01-20 11:00:00,
2013-01-20 03:16:00,32.5,32.0,30.14,WNW,292,0.0,-999.0,98,-99.99,,,0.00,Acu-Link.com,2013-01-20 11:16:00,
2013-01-20 03:31:00,33.1,32.6,30.13,WNW,292,0.0,-999.0,98,-99.99,,,0.00,Acu-Link.com,2013-01-20 11:31:00,
2013-01-20 03:46:00,32.9,32.4,30.12,WNW,292,0.0,-999.0,98,-99.99,,,0.00,Acu-Link.com,2013-01-20 11:46:00,
2013-01-20 04:16:00,32.2,31.7,30.13,WNW,292,0.0,-999.0,98,-99.99,,,0.00,Acu-Link.com,2013-01-20 12:16:00,
2013-01-20 04:31:00,31.8,31.3,30.12,WNW,292,0.0,-999.0,98,-99.99,,,0.00,Acu-Link.com,2013-01-20 12:31:00,
2013-01-20 04:46:00,31.3,30.8,30.12,WNW,292,0.0,-999.0,98,-99.99,,,0.00,Acu-Link.com,2013-01-20 12:46:00,
2013-01-20 05:01:00,31.3,30.8,30.14,WNW,292,0.0,-999.0,98,-99.99,,,0.00,Acu-Link.com,2013-01-20 13:01:00,
2013-01-20 05:16:00,31.5,31.0,30.11,WNW,292,0.0,-999.0,98,-99.99,,,0.00,Acu-Link.com,2013-01-20 13:16:00,
2013-01-20 05:31:00,31.6,31.1,30.11,WNW,292,0.0,-999.0,98,-99.99,,,0.00,Acu-Link.com,2013-01-20 13:31:00,
2013-01-20 05:47:00,31.6,31.1,30.12,WNW,292,0.0,-999.0,98,-99.99,,,0.00,Acu-Link.com,2013-01-20 13:47:00,
2013-01-20 06:02:00,31.5,31.0,30.11,WNW,292,0.0,-999.0,98,-99.99,,,0.00,Acu-Link.com,2013-01-20 14:02:00,
2013-01-20 06:17:00,31.3,30.8,30.11,WNW,292,0.0,-999.0,98,-99.99,,,0.00,Acu-Link.com,2013-01-20 14:17:00,
2013-01-20 06:32:00,31.1,30.6,30.12,WNW,292,0.0,-999.0,98,-99.99,,,0.00,Acu-Link.com,2013-01-20 14:32:00,
2013-01-20 06:47:00,30.7,30.2,30.10,WNW,292,0.0,-999.0,98,-99.99,,,0.00,Acu-Link.com,2013-01-20 14:47:00,
2013-01-20 07:02:00,30.6,30.1,30.10,WNW,292,0.0,-999.0,98,-99.99,,,0.00,Acu-Link.com,2013-01-20 15:02:00,
2013-01-20 07:17:00,30.2,29.7,30.10,WNW,292,0.0,-999.0,98,-99.99,,,0.00,Acu-Link.com,2013-01-20 15:17:00,
2013-01-20 07:32:00,30.0,29.5,30.11,WNW,292,0.0,-999.0,98,-99.99,,,0.00,Acu-Link.com,2013-01-20 15:32:00,
2013-01-20 07:47:00,30.4,29.9,30.11,WNW,292,0.0,-999.0,98,-99.99,,,0.00,Acu-Link.com,2013-01-20 15:47:00,
2013-01-20 08:03:00,31.3,30.8,30.13,WNW,292,0.0,-999.0,98,-99.99,,,0.00,Acu-Link.com,2013-01-20 16:03:00,
2013-01-20 08:18:00,35.1,34.6,30.11,WNW,292,0.0,-999.0,98,-99.99,,,0.00,Acu-Link.com,2013-01-20 16:18:00,
2013-01-20 08:33:00,37.4,36.9,30.11,NNW,337,0.0,-999.0,98,-99.99,,,0.00,Acu-Link.com,2013-01-20 16:33:00,
2013-01-20 08:48:00,39.0,38.2,30.13,NNW,337,0.0,-999.0,97,-99.99,,,0.00,Acu-Link.com,2013-01-20 16:48:00,
2013-01-20 09:03:00,40.5,38.9,30.11,North,0,0.0,-999.0,94,-99.99,,,0.00,Acu-Link.com,2013-01-20 17:03:00,
2013-01-20 09:18:00,42.4,39.7,30.10,NW,315,0.0,-999.0,90,-99.99,,,0.00,Acu-Link.com,2013-01-20 17:18:00,
2013-01-20 09:33:00,44.2,40.6,30.11,NNE,22,0.0,-999.0,87,-99.99,,,0.00,Acu-Link.com,2013-01-20 17:33:00,
2013-01-20 09:48:00,46.0,41.7,30.11,NE,45,0.0,-999.0,85,-99.99,,,0.00,Acu-Link.com,2013-01-20 17:48:00,
2013-01-20 10:03:00,46.6,41.1,30.11,North,0,0.0,-999.0,81,-99.99,,,0.00,Acu-Link.com,2013-01-20 18:03:00,
2013-01-20 10:19:00,48.2,42.0,30.11,NNE,22,1.7,-999.0,79,-99.99,,,0.00,Acu-Link.com,2013-01-20 18:19:00,
2013-01-20 10:34:00,49.6,42.7,30.10,NNE,22,1.7,-999.0,77,-99.99,,,0.00,Acu-Link.com,2013-01-20 18:34:00,
2013-01-20 10:49:00,51.1,43.1,30.11,SSE,157,0.0,-999.0,74,-99.99,,,0.00,Acu-Link.com,2013-01-20 18:49:00,
2013-01-20 11:04:00,51.1,43.5,30.09,NE,45,0.0,-999.0,75,-99.99,,,0.00,Acu-Link.com,2013-01-20 19:04:00,
2013-01-20 11:19:00,51.6,42.1,30.09,North,0,1.1,-999.0,70,-99.99,,,0.00,Acu-Link.com,2013-01-20 19:19:00,
2013-01-20 11:34:00,52.9,41.9,30.08,NNE,22,2.2,-999.0,66,-99.99,,,0.00,Acu-Link.com,2013-01-20 19:34:00,
2013-01-20 11:49:00,53.8,40.7,30.07,NNE,22,3.2,-999.0,61,-99.99,,,0.00,Acu-Link.com,2013-01-20 19:49:00,
2013-01-20 12:04:00,55.2,41.1,30.07,North,0,0.0,-999.0,59,-99.99,,,0.00,Acu-Link.com,2013-01-20 20:04:00,
2013-01-20 12:19:00,57.0,42.4,30.08,NNE,22,0.0,-999.0,58,-99.99,,,0.00,Acu-Link.com,2013-01-20 20:19:00,
2013-01-20 12:35:00,56.1,41.1,30.06,NNE,22,1.7,-999.0,57,-99.99,,,0.00,Acu-Link.com,2013-01-20 20:35:00,
2013-01-20 12:50:00,57.9,40.9,30.04,NE,45,1.1,-999.0,53,-99.99,,,0.00,Acu-Link.com,2013-01-20 20:50:00,
2013-01-20 13:05:00,57.9,39.4,30.03,NNE,22,4.2,-999.0,50,-99.99,,,0.00,Acu-Link.com,2013-01-20 21:05:00,
2013-01-20 13:20:00,57.6,36.4,30.02,ESE,112,1.7,-999.0,45,-99.99,,,0.00,Acu-Link.com,2013-01-20 21:20:00,
2013-01-20 13:35:00,57.6,38.1,30.02,SW,225,0.0,-999.0,48,-99.99,,,0.00,Acu-Link.com,2013-01-20 21:35:00,
2013-01-20 13:50:00,57.9,38.9,30.01,SSW,202,0.0,-999.0,49,-99.99,,,0.00,Acu-Link.com,2013-01-20 21:50:00,
2013-01-20 14:05:00,58.3,39.2,30.01,NE,45,0.0,-999.0,49,-99.99,,,0.00,Acu-Link.com,2013-01-20 22:05:00,
2013-01-20 14:21:00,58.8,39.7,30.00,NE,45,0.0,-999.0,49,-99.99,,,0.00,Acu-Link.com,2013-01-20 22:21:00,
2013-01-20 14:36:00,59.0,39.9,30.01,NNW,337,0.0,-999.0,49,-99.99,,,0.00,Acu-Link.com,2013-01-20 22:36:00,
2013-01-20 14:51:00,59.0,40.4,30.00,NE,45,0.0,-999.0,50,-99.99,,,0.00,Acu-Link.com,2013-01-20 22:51:00,
2013-01-20 15:06:00,58.8,39.2,29.99,NNE,22,0.0,-999.0,48,-99.99,,,0.00,Acu-Link.com,2013-01-20 23:06:00,
2013-01-20 16:06:00,60.6,36.1,29.98,NNE,22,0.0,-999.0,40,-99.99,,,0.00,Acu-Link.com,2013-01-21 00:06:00,
2013-01-20 16:21:00,59.4,37.5,29.99,North,0,0.0,-999.0,44,-99.99,,,0.00,Acu-Link.com,2013-01-21 00:21:00,
2013-01-20 16:37:00,58.5,38.9,30.01,NNE,22,0.0,-999.0,48,-99.99,,,0.00,Acu-Link.com,2013-01-21 00:37:00,
2013-01-20 16:52:00,56.5,39.1,29.98,NNE,22,0.0,-999.0,52,-99.99,,,0.00,Acu-Link.com,2013-01-21 00:52:00,
2013-01-20 17:07:00,54.9,39.0,29.99,NNE,22,0.0,-999.0,55,-99.99,,,0.00,Acu-Link.com,2013-01-21 01:07:00,
2013-01-20 17:52:00,49.8,39.3,30.01,NNE,22,0.0,-999.0,67,-99.99,,,0.00,Acu-Link.com,2013-01-21 01:52:00,
2013-01-20 18:22:00,47.8,39.2,30.00,NNE,22,0.0,-999.0,72,-99.99,,,0.00,Acu-Link.com,2013-01-21 02:22:00,
2013-01-20 18:37:00,46.6,38.8,30.01,NNE,22,0.0,-999.0,74,-99.99,,,0.00,Acu-Link.com,2013-01-21 02:37:00,
2013-01-20 18:53:00,45.9,38.8,29.97,NNE,22,0.0,-999.0,76,-99.99,,,0.00,Acu-Link.com,2013-01-21 02:53:00,
2013-01-20 19:08:00,44.8,38.4,29.98,NNE,22,0.0,-999.0,78,-99.99,,,0.00,Acu-Link.com,2013-01-21 03:08:00,
2013-01-20 19:23:00,44.1,37.7,29.97,NNE,22,0.0,-999.0,78,-99.99,,,0.00,Acu-Link.com,2013-01-21 03:23:00,
2013-01-20 19:38:00,43.2,37.5,29.99,NNE,22,0.0,-999.0,80,-99.99,,,0.00,Acu-Link.com,2013-01-21 03:38:00,
2013-01-20 20:08:00,41.9,37.1,30.02,NNE,22,0.0,-999.0,83,-99.99,,,0.00,Acu-Link.com,2013-01-21 04:08:00,
2013-01-20 20:23:00,41.5,37.3,30.03,NNE,22,0.0,-999.0,85,-99.99,,,0.00,Acu-Link.com,2013-01-21 04:23:00,
2013-01-20 20:38:00,41.2,37.3,30.03,NNE,22,0.0,-999.0,86,-99.99,,,0.00,Acu-Link.com,2013-01-21 04:38:00,
2013-01-20 20:53:00,40.6,37.0,30.04,NNE,22,0.0,-999.0,87,-99.99,,,0.00,Acu-Link.com,2013-01-21 04:53:00,
2013-01-20 21:09:00,40.5,37.2,30.03,North,0,0.0,-999.0,88,-99.99,,,0.00,Acu-Link.com,2013-01-21 05:09:00,
2013-01-20 21:24:00,40.1,36.8,30.03,North,0,0.0,-999.0,88,-99.99,,,0.00,Acu-Link.com,2013-01-21 05:24:00,
2013-01-20 21:39:00,39.9,37.2,30.03,North,0,0.0,-999.0,90,-99.99,,,0.00,Acu-Link.com,2013-01-21 05:39:00,
2013-01-20 21:54:00,39.7,37.6,30.05,North,0,0.0,-999.0,92,-99.99,,,0.00,Acu-Link.com,2013-01-21 05:54:00,
2013-01-20 22:09:00,39.0,36.9,30.05,North,0,0.0,-999.0,92,-99.99,,,0.00,Acu-Link.com,2013-01-21 06:09:00,
2013-01-20 22:24:00,38.7,36.6,30.05,North,0,0.0,-999.0,92,-99.99,,,0.00,Acu-Link.com,2013-01-21 06:24:00,
2013-01-20 22:39:00,38.3,37.0,30.04,North,0,0.0,-999.0,95,-99.99,,,0.00,Acu-Link.com,2013-01-21 06:39:00,
2013-01-20 22:54:00,37.9,36.3,30.04,North,0,0.0,-999.0,94,-99.99,,,0.00,Acu-Link.com,2013-01-21 06:54:00,
2013-01-20 23:09:00,37.9,36.9,30.05,North,0,0.0,-999.0,96,-99.99,,,0.00,Acu-Link.com,2013-01-21 07:09:00,
2013-01-20 23:25:00,37.2,36.2,30.03,North,0,0.0,-999.0,96,-99.99,,,0.00,Acu-Link.com,2013-01-21 07:25:00,
2013-01-20 23:40:00,37.2,36.7,30.04,North,0,0.0,-999.0,98,-99.99,,,0.00,Acu-Link.com,2013-01-21 07:40:00,
2013-01-20 23:55:00,37.4,36.9,30.04,North,0,0.0,-999.0,98,-99.99,,,0.00,Acu-Link.com,2013-01-21 07:55:00,